Tracking 28895 objects as of 29-May-2024
HD Live streaming from Space Station
objects crossing your sky now

COSMOS 1823 DEB

Track COSMOS 1823 DEB now!
10-day predictions


NORAD ID: 18802
Int'l Code: 1987-020AN
Perigee: 1,472.9 km
Apogee: 1,634.2 km
Inclination: 73.6 °
Period: 117.0 minutes
Semi major axis: 7924 km
RCS: 0.0581 m2 (small)
Launch date: February 20, 1987
Source: Commonwealth of Independent States (former USSR) (CIS)
Launch site: PLESETSK MISSILE AND SPACE COMPLEX (PKMTR)

Note: This is SATELLITE DEBRIS
Your satellite tracking list
Your tracking list is empty




NASA's NSSDC Master Catalog

Two Line Element Set (TLE):
1 18802U 87020AN  24148.97320698  .00000168  00000-0  15385-2 0  9998
2 18802  73.5926   2.1522 0101783 325.4142 102.0305 12.30659315634768
Source of the keplerian elements: AFSPC